Time,TemperatureF,DewpointF,PressureIn,WindDirection,WindDirectionDegrees,WindSpeedMPH,WindSpeedGustMPH,Humidity,HourlyPrecipIn,Conditions,Clouds,dailyrainin,SoftwareType,DateUTC
2013-01-25 00:12:00,41.5,42.0,30.05,SW,223,0.0,-999.0,100,-99.99,,,0.00,weatherlink.com 1.10,2013-01-25 08:12:00,
2013-01-25 00:27:00,41.8,42.0,30.04,SW,223,0.0,-999.0,100,-99.99,,,0.00,weatherlink.com 1.10,2013-01-25 08:27:00,
2013-01-25 00:42:00,41.8,42.0,30.03,SW,223,0.0,-999.0,100,-99.99,,,0.00,weatherlink.com 1.10,2013-01-25 08:42:00,
2013-01-25 00:57:00,41.8,42.0,30.03,SW,223,0.0,-999.0,100,-99.99,,,0.00,weatherlink.com 1.10,2013-01-25 08:57:00,
2013-01-25 01:12:00,42.2,42.0,30.03,SW,223,0.0,-999.0,100,-99.99,,,0.00,weatherlink.com 1.10,2013-01-25 09:12:00,
2013-01-25 01:27:00,42.6,43.0,30.02,SW,223,0.0,-999.0,100,-99.99,,,0.00,weatherlink.com 1.10,2013-01-25 09:27:00,
2013-01-25 01:43:00,43.1,43.0,30.02,SW,223,0.0,-999.0,100,-99.99,,,0.00,weatherlink.com 1.10,2013-01-25 09:43:00,
2013-01-25 01:57:00,43.2,43.0,30.02,SW,223,0.0,-999.0,100,-99.99,,,0.00,weatherlink.com 1.10,2013-01-25 09:57:00,
2013-01-25 02:12:00,43.8,44.0,30.02,SW,223,0.0,-999.0,100,-99.99,,,0.00,weatherlink.com 1.10,2013-01-25 10:12:00,
2013-01-25 02:27:00,44.2,44.0,30.02,SW,223,0.0,-999.0,100,-99.99,,,0.00,weatherlink.com 1.10,2013-01-25 10:27:00,
2013-01-25 02:42:00,44.1,44.0,30.01,SW,223,0.0,-999.0,100,-99.99,,,0.01,weatherlink.com 1.10,2013-01-25 10:42:00,
2013-01-25 02:57:00,44.3,44.0,30.01,SW,223,0.0,-999.0,100,-99.99,,,0.01,weatherlink.com 1.10,2013-01-25 10:57:00,
2013-01-25 03:12:00,44.3,44.0,30.00,SW,223,0.0,-999.0,100,-99.99,,,0.01,weatherlink.com 1.10,2013-01-25 11:12:00,
2013-01-25 03:27:00,44.2,44.0,30.01,SW,223,0.0,-999.0,100,-99.99,,,0.01,weatherlink.com 1.10,2013-01-25 11:27:00,
2013-01-25 03:42:00,44.3,44.0,30.00,SW,223,0.0,-999.0,100,-99.99,,,0.02,weatherlink.com 1.10,2013-01-25 11:42:00,
2013-01-25 03:57:00,44.5,45.0,30.00,SW,223,0.0,-999.0,100,-99.99,,,0.03,weatherlink.com 1.10,2013-01-25 11:57:00,
2013-01-25 04:12:00,44.6,45.0,29.99,SW,223,0.0,-999.0,100,-99.99,,,0.03,weatherlink.com 1.10,2013-01-25 12:12:00,
2013-01-25 04:27:00,44.9,45.0,29.98,SW,223,0.0,-999.0,100,-99.99,,,0.03,weatherlink.com 1.10,2013-01-25 12:27:00,
2013-01-25 04:42:00,44.9,45.0,29.99,SW,223,0.0,-999.0,100,-99.99,,,0.03,weatherlink.com 1.10,2013-01-25 12:42:00,
2013-01-25 04:57:00,44.9,45.0,29.98,SW,223,0.0,-999.0,100,-99.99,,,0.04,weatherlink.com 1.10,2013-01-25 12:57:00,
2013-01-25 05:12:00,44.9,45.0,29.98,South,182,0.0,-999.0,100,-99.99,,,0.04,weatherlink.com 1.10,2013-01-25 13:12:00,
2013-01-25 05:27:00,44.9,45.0,29.98,SSE,159,2.0,-999.0,100,-99.99,,,0.04,weatherlink.com 1.10,2013-01-25 13:27:00,
2013-01-25 05:42:00,45.1,45.0,29.98,SSE,166,0.0,-999.0,100,-99.99,,,0.04,weatherlink.com 1.10,2013-01-25 13:42:00,
2013-01-25 05:57:00,45.1,45.0,29.98,SSE,158,0.0,-999.0,100,-99.99,,,0.04,weatherlink.com 1.10,2013-01-25 13:57:00,
2013-01-25 06:12:00,44.9,45.0,29.98,SSE,158,0.0,-999.0,100,-99.99,,,0.04,weatherlink.com 1.10,2013-01-25 14:12:00,
2013-01-25 06:27:00,44.8,45.0,29.98,SSE,158,0.0,-999.0,100,-99.99,,,0.04,weatherlink.com 1.10,2013-01-25 14:27:00,
2013-01-25 06:42:00,44.6,45.0,29.98,SSE,158,0.0,-999.0,100,-99.99,,,0.04,weatherlink.com 1.10,2013-01-25 14:42:00,
2013-01-25 06:57:00,44.5,45.0,29.98,SE,146,2.0,-999.0,100,-99.99,,,0.04,weatherlink.com 1.10,2013-01-25 14:57:00,
2013-01-25 07:12:00,44.5,45.0,29.98,SE,146,0.0,-999.0,100,-99.99,,,0.04,weatherlink.com 1.10,2013-01-25 15:12:00,
2013-01-25 07:27:00,44.5,45.0,29.98,SE,146,0.0,-999.0,100,-99.99,,,0.04,weatherlink.com 1.10,2013-01-25 15:27:00,
2013-01-25 07:42:00,44.6,45.0,29.98,SE,146,0.0,-999.0,100,-99.99,,,0.04,weatherlink.com 1.10,2013-01-25 15:42:00,
2013-01-25 07:57:00,44.6,45.0,29.97,SE,146,0.0,-999.0,100,-99.99,,,0.04,weatherlink.com 1.10,2013-01-25 15:57:00,
2013-01-25 08:12:00,44.5,45.0,29.97,SE,146,0.0,-999.0,100,-99.99,,,0.04,weatherlink.com 1.10,2013-01-25 16:12:00,
2013-01-25 08:27:00,44.6,45.0,29.96,SE,146,0.0,-999.0,100,-99.99,,,0.04,weatherlink.com 1.10,2013-01-25 16:27:00,
2013-01-25 08:42:00,45.1,45.0,29.96,SE,146,0.0,-999.0,100,-99.99,,,0.04,weatherlink.com 1.10,2013-01-25 16:42:00,
2013-01-25 08:57:00,45.1,45.0,29.96,SE,146,0.0,-999.0,100,-99.99,,,0.04,weatherlink.com 1.10,2013-01-25 16:57:00,
2013-01-25 09:12:00,45.5,46.0,29.96,SE,146,0.0,-999.0,100,-99.99,,,0.04,weatherlink.com 1.10,2013-01-25 17:12:00,
2013-01-25 09:27:00,45.5,46.0,29.96,SE,146,0.0,-999.0,100,-99.99,,,0.04,weatherlink.com 1.10,2013-01-25 17:27:00,
2013-01-25 09:42:00,45.4,45.0,29.96,SE,146,0.0,-999.0,100,-99.99,,,0.05,weatherlink.com 1.10,2013-01-25 17:42:00,
2013-01-25 09:57:00,45.1,45.0,29.96,SE,146,0.0,-999.0,100,-99.99,,,0.07,weatherlink.com 1.10,2013-01-25 17:57:00,
2013-01-25 10:12:00,45.5,46.0,29.96,SE,146,0.0,-999.0,100,-99.99,,,0.07,weatherlink.com 1.10,2013-01-25 18:12:00,
2013-01-25 10:27:00,46.0,46.0,29.96,SE,146,0.0,-999.0,100,-99.99,,,0.07,weatherlink.com 1.10,2013-01-25 18:27:00,
2013-01-25 10:42:00,46.4,46.0,29.96,SE,146,0.0,-999.0,100,-99.99,,,0.07,weatherlink.com 1.10,2013-01-25 18:42:00,
2013-01-25 10:57:00,46.4,46.0,29.97,SSE,165,0.0,-999.0,100,-99.99,,,0.07,weatherlink.com 1.10,2013-01-25 18:57:00,
2013-01-25 11:12:00,47.0,47.0,29.96,SSE,165,0.0,-999.0,100,-99.99,,,0.07,weatherlink.com 1.10,2013-01-25 19:12:00,
2013-01-25 11:27:00,47.6,48.0,29.96,SSE,165,0.0,-999.0,100,-99.99,,,0.07,weatherlink.com 1.10,2013-01-25 19:27:00,
2013-01-25 11:42:00,47.7,48.0,29.96,SSE,160,0.0,-999.0,100,-99.99,,,0.07,weatherlink.com 1.10,2013-01-25 19:42:00,
2013-01-25 11:57:00,48.0,48.0,29.95,SSE,160,0.0,-999.0,100,-99.99,,,0.07,weatherlink.com 1.10,2013-01-25 19:57:00,
2013-01-25 12:12:00,48.3,48.0,29.94,South,179,0.0,-999.0,100,-99.99,,,0.07,weatherlink.com 1.10,2013-01-25 20:12:00,
2013-01-25 12:27:00,48.8,49.0,29.94,South,179,0.0,-999.0,100,-99.99,,,0.07,weatherlink.com 1.10,2013-01-25 20:27:00,
2013-01-25 12:42:00,49.2,49.0,29.93,ENE,66,0.0,-999.0,100,-99.99,,,0.07,weatherlink.com 1.10,2013-01-25 20:42:00,
2013-01-25 12:57:00,49.6,50.0,29.93,NW,318,0.0,-999.0,100,-99.99,,,0.07,weatherlink.com 1.10,2013-01-25 20:57:00,
2013-01-25 13:12:00,50.1,50.0,29.92,NW,319,0.0,-999.0,100,-99.99,,,0.07,weatherlink.com 1.10,2013-01-25 21:12:00,
2013-01-25 13:27:00,49.9,50.0,29.91,NW,319,0.0,-999.0,100,-99.99,,,0.07,weatherlink.com 1.10,2013-01-25 21:27:00,
2013-01-25 13:42:00,49.9,50.0,29.91,NW,319,0.0,-999.0,100,-99.99,,,0.07,weatherlink.com 1.10,2013-01-25 21:42:00,
2013-01-25 13:57:00,49.6,50.0,29.90,SSE,161,0.0,-999.0,100,-99.99,,,0.07,weatherlink.com 1.10,2013-01-25 21:57:00,
2013-01-25 14:12:00,49.6,50.0,29.90,ESE,111,0.0,-999.0,100,-99.99,,,0.07,weatherlink.com 1.10,2013-01-25 22:12:00,
2013-01-25 14:27:00,49.4,49.0,29.89,East,101,0.0,-999.0,100,-99.99,,,0.07,weatherlink.com 1.10,2013-01-25 22:27:00,
2013-01-25 14:42:00,49.4,49.0,29.89,East,101,0.0,-999.0,100,-99.99,,,0.07,weatherlink.com 1.10,2013-01-25 22:42:00,
2013-01-25 14:57:00,49.1,49.0,29.89,East,101,0.0,-999.0,100,-99.99,,,0.07,weatherlink.com 1.10,2013-01-25 22:57:00,
2013-01-25 15:12:00,49.5,50.0,29.89,East,101,0.0,-999.0,100,-99.99,,,0.07,weatherlink.com 1.10,2013-01-25 23:12:00,
2013-01-25 15:27:00,49.5,50.0,29.89,SW,223,0.0,-999.0,100,-99.99,,,0.07,weatherlink.com 1.10,2013-01-25 23:27:00,
2013-01-25 15:42:00,49.5,50.0,29.88,SW,223,0.0,-999.0,100,-99.99,,,0.07,weatherlink.com 1.10,2013-01-25 23:42:00,
2013-01-25 15:57:00,49.2,49.0,29.88,SW,223,0.0,-999.0,100,-99.99,,,0.07,weatherlink.com 1.10,2013-01-25 23:57:00,
2013-01-25 16:12:00,48.6,49.0,29.89,SW,233,0.0,-999.0,100,-99.99,,,0.07,weatherlink.com 1.10,2013-01-26 00:12:00,
2013-01-25 16:27:00,48.2,48.0,29.88,West,277,0.0,-999.0,100,-99.99,,,0.07,weatherlink.com 1.10,2013-01-26 00:27:00,
2013-01-25 16:42:00,47.6,48.0,29.88,West,281,0.0,-999.0,100,-99.99,,,0.07,weatherlink.com 1.10,2013-01-26 00:42:00,
2013-01-25 16:57:00,46.8,47.0,29.88,WSW,244,0.0,-999.0,100,-99.99,,,0.07,weatherlink.com 1.10,2013-01-26 00:57:00,
2013-01-25 17:12:00,46.1,46.0,29.88,WSW,251,0.0,-999.0,100,-99.99,,,0.07,weatherlink.com 1.10,2013-01-26 01:12:00,
2013-01-25 17:27:00,45.4,45.0,29.88,West,263,1.0,-999.0,100,-99.99,,,0.07,weatherlink.com 1.10,2013-01-26 01:27:00,
2013-01-25 17:42:00,45.1,45.0,29.87,NW,311,1.0,-999.0,100,-99.99,,,0.07,weatherlink.com 1.10,2013-01-26 01:42:00,
2013-01-25 17:57:00,44.9,45.0,29.87,WSW,250,0.0,-999.0,100,-99.99,,,0.07,weatherlink.com 1.10,2013-01-26 01:57:00,
2013-01-25 18:13:00,44.3,44.0,29.88,WNW,300,0.0,-999.0,100,-99.99,,,0.07,weatherlink.com 1.10,2013-01-26 02:13:00,
2013-01-25 18:27:00,43.8,44.0,29.88,NW,319,0.0,-999.0,100,-99.99,,,0.07,weatherlink.com 1.10,2013-01-26 02:27:00,
2013-01-25 18:42:00,43.3,43.0,29.88,NW,319,2.0,-999.0,100,-99.99,,,0.07,weatherlink.com 1.10,2013-01-26 02:42:00,
2013-01-25 18:57:00,43.3,43.0,29.88,NW,319,0.0,-999.0,100,-99.99,,,0.07,weatherlink.com 1.10,2013-01-26 02:57:00,
2013-01-25 19:13:00,43.3,43.0,29.88,NW,319,0.0,-999.0,100,-99.99,,,0.07,weatherlink.com 1.10,2013-01-26 03:13:00,
2013-01-25 19:27:00,43.3,43.0,29.88,NW,319,0.0,-999.0,100,-99.99,,,0.07,weatherlink.com 1.10,2013-01-26 03:27:00,
2013-01-25 19:43:00,43.1,43.0,29.88,NW,319,0.0,-999.0,100,-99.99,,,0.07,weatherlink.com 1.10,2013-01-26 03:43:00,
2013-01-25 19:58:00,42.9,43.0,29.88,NW,319,0.0,-999.0,100,-99.99,,,0.07,weatherlink.com 1.10,2013-01-26 03:58:00,
2013-01-25 20:13:00,42.9,43.0,29.88,NW,319,0.0,-999.0,100,-99.99,,,0.07,weatherlink.com 1.10,2013-01-26 04:13:00,
2013-01-25 20:28:00,42.5,43.0,29.88,NW,319,0.0,-999.0,100,-99.99,,,0.07,weatherlink.com 1.10,2013-01-26 04:28:00,
2013-01-25 20:43:00,42.3,42.0,29.88,NW,319,0.0,-999.0,100,-99.99,,,0.07,weatherlink.com 1.10,2013-01-26 04:43:00,
2013-01-25 20:58:00,42.3,42.0,29.88,NW,319,0.0,-999.0,100,-99.99,,,0.07,weatherlink.com 1.10,2013-01-26 04:58:00,
2013-01-25 21:13:00,41.8,42.0,29.87,NW,319,0.0,-999.0,100,-99.99,,,0.07,weatherlink.com 1.10,2013-01-26 05:13:00,
2013-01-25 21:28:00,41.5,42.0,29.87,NW,319,0.0,-999.0,100,-99.99,,,0.07,weatherlink.com 1.10,2013-01-26 05:28:00,
2013-01-25 21:43:00,41.1,41.0,29.88,NW,319,0.0,-999.0,100,-99.99,,,0.07,weatherlink.com 1.10,2013-01-26 05:43:00,
2013-01-25 21:58:00,40.2,40.0,29.88,NW,319,0.0,-999.0,100,-99.99,,,0.07,weatherlink.com 1.10,2013-01-26 05:58:00,
2013-01-25 22:13:00,40.1,40.0,29.88,NW,319,0.0,-999.0,100,-99.99,,,0.07,weatherlink.com 1.10,2013-01-26 06:13:00,
2013-01-25 22:28:00,40.1,40.0,29.88,NW,319,0.0,-999.0,100,-99.99,,,0.07,weatherlink.com 1.10,2013-01-26 06:28:00,
2013-01-25 22:43:00,39.3,39.0,29.88,NW,319,0.0,-999.0,100,-99.99,,,0.07,weatherlink.com 1.10,2013-01-26 06:43:00,
2013-01-25 22:58:00,39.1,39.0,29.88,NW,319,0.0,-999.0,100,-99.99,,,0.07,weatherlink.com 1.10,2013-01-26 06:58:00,
2013-01-25 23:13:00,38.6,39.0,29.88,NW,319,0.0,-999.0,100,-99.99,,,0.07,weatherlink.com 1.10,2013-01-26 07:13:00,
2013-01-25 23:28:00,37.9,38.0,29.88,NW,319,0.0,-999.0,100,-99.99,,,0.07,weatherlink.com 1.10,2013-01-26 07:28:00,
2013-01-25 23:42:00,37.5,38.0,29.88,NW,319,0.0,-999.0,100,-99.99,,,0.07,weatherlink.com 1.10,2013-01-26 07:42:00,
2013-01-25 23:57:00,37.2,37.0,29.88,NW,319,0.0,-999.0,100,-99.99,,,0.07,weatherlink.com 1.10,2013-01-26 07:57:00,